Home > Weather > Midland > Past weeks

Flag for U.S.A. Weather for the Past 2 Weeks in Midland, Texas, U.S.A.

Now
65 °F

Sunny.


Feels Like: 65 °F
Forecast: 35 / 66 °F
Wind: 8 mph from West

Location: Midland - Midland Airpark

Current Time: Feb 9, 2016 at 5:04:45 PM

Latest Report: Feb 9, 2016 at 4:15 PM


Visibility: 10 mi

Pressure: 30.30 "Hg (27.44 "Hg at 847m altitude)

Humidity: 19%

Dew point: 22 °F

Location of MidlandLocation

Historic Weather in Midland — Graph

°F

Midland Temperature Yesterday

Maximum temperature yesterday: 56 °F (at 4:15 PM)
Minimum temperature yesterday: 31 °F (at 6:35 AM)
Average temperature yesterday: 43 °F

High & Low Weather Summary for the Past Weeks

 TemperatureHumidityPressure
High80 °F (Jan 30, 3:15 PM)100% (Jan 26, 2:55 PM)30.55 "Hg (Jan 26, 2:55 PM)
Low27 °F (Feb 3, 6:35 AM)7% (Jan 30, 4:15 PM)29.45 "Hg (Feb 1, 3:55 PM)
Average48 °F42%30.14 "Hg
* Reported Jan 25 4:15 PM — Feb 9 4:15 PM, Midland, Weather by CustomWeather, © 2016

Note: Actual official high and low records may vary slightly from our data, if they occured in-between our weather recording intervals... More about our weather records

Advertising

Midland Weather History for the Previous 24 Hours

 ConditionsComfort  
Time TempWeatherWind HumidityBarometerVisibility
4:15 PM
Tue, Feb 9
65 °FSunny.8 mph19%30.30 "Hg10 mi
3:15 PM65 °FSunny.No wind20%30.30 "Hg10 mi
2:55 PM65 °FSunny.6 mph20%30.31 "Hg10 mi
2:35 PM65 °FSunny.7 mph20%30.32 "Hg10 mi
2:15 PM64 °FSunny.7 mph21%30.33 "Hg10 mi
1:55 PM63 °FSunny.3 mph21%30.33 "Hg10 mi
1:35 PM63 °FSunny.3 mph21%30.35 "Hg10 mi
1:15 PM62 °FSunny.3 mph21%30.35 "Hg10 mi
12:55 PM61 °FSunny.6 mph22%30.37 "Hg10 mi
12:35 PM60 °FSunny.3 mph22%30.39 "Hg10 mi
12:15 PM60 °FSunny.3 mph22%30.40 "Hg10 mi
11:55 AM60 °FSunny.7 mph21%30.41 "Hg10 mi
11:35 AM58 °FSunny.8 mph21%30.44 "Hg10 mi
11:15 AM56 °FSunny.6 mph22%30.44 "Hg10 mi
10:55 AM55 °FSunny.9 mph23%30.43 "Hg10 mi
9:55 AM47 °FSunny.6 mph33%30.44 "Hg10 mi
9:15 AM43 °FSunny.5 mph36%30.44 "Hg10 mi
8:35 AM37 °FSunny.5 mph46%30.43 "Hg10 mi
8:15 AM35 °FSunny.6 mph50%30.43 "Hg10 mi
7:55 AM33 °FSunny.6 mph53%30.43 "Hg10 mi
7:15 AM33 °FClear.6 mph54%30.41 "Hg10 mi
6:55 AM34 °FClear.6 mph52%30.41 "Hg10 mi
6:15 AM34 °FClear.5 mph51%30.40 "Hg10 mi
5:55 AM33 °FClear.5 mph52%30.40 "Hg10 mi
5:15 AM34 °FClear.No wind51%30.40 "Hg10 mi
4:15 AM36 °FClear.6 mph46%30.40 "Hg10 mi
3:55 AM36 °FClear.5 mph47%30.40 "Hg10 mi
3:15 AM37 °FClear.5 mph42%30.40 "Hg10 mi
2:55 AM37 °FClear.5 mph43%30.40 "Hg10 mi
2:15 AM38 °FClear.7 mph39%30.40 "Hg10 mi
1:55 AM39 °FClear.8 mph38%30.41 "Hg10 mi
1:15 AM39 °FClear.7 mph39%30.41 "Hg10 mi
12:55 AM40 °FClear.6 mph37%30.41 "Hg10 mi
12:15 AM41 °FClear.8 mph37%30.41 "Hg10 mi
11:55 PM
Mon, Feb 8
41 °FClear.6 mph38%30.42 "Hg10 mi
11:15 PM39 °FClear.6 mph41%30.41 "Hg10 mi
10:55 PM40 °FClear.6 mph40%30.42 "Hg10 mi
10:15 PM41 °FClear.3 mph41%30.41 "Hg10 mi
9:55 PM42 °FClear.No wind37%30.41 "Hg10 mi
9:15 PM44 °FClear.No wind34%30.41 "Hg10 mi
8:55 PM45 °FClear.No wind34%30.40 "Hg10 mi
8:15 PM48 °FClear.3 mph28%30.39 "Hg10 mi
7:55 PM48 °FClear.No wind29%30.38 "Hg10 mi
7:15 PM51 °FClear.No wind24%30.37 "Hg10 mi
6:55 PM52 °FClear.No wind22%30.37 "Hg10 mi
6:15 PM53 °FSunny.No wind21%30.37 "Hg10 mi
5:35 PM55 °FSunny.3 mph20%30.37 "Hg10 mi
5:15 PM55 °FSunny.6 mph20%30.38 "Hg10 mi
Weather by CustomWeather, © 2016

See weather overviewHow to use our weather pages